Zurück zum Katalog

FENGYUN 1C DEB

AktivSSO
NORAD 31311·DEBRIS·🇨🇳 China

Gestartet May 10, 1999 von Taiyuan Satellite Launch Center

Loading…

Nächste Überflüge (nächste 24 Stunden)

TLE

AktuellSource: Space-Track

Epoche: Sep 14, 2026, 05:11 UTC

1 31311U 99025BPP 26257.21629646  .00002229  00000-0  85066-3 0  9995
2 31311  98.8447 348.4030 0016848 359.8222  29.5210 14.31756981  1589

Verfolge FENGYUN 1C DEB in Echtzeit mit AllMySat

Download on the App Store